Regional Weather Roundup
Issued by NWS Jackson, KY

Home | Current Version | Previous Version | Graphics & Text | Print | Product List | Glossary On
Versions: 1 2 3 4 5 6 7 8 9 10 11 12 13 14 15 16 17 18 19 20 21 22 23 24 25 26 27 28 29 30 31 32 33 34 35 36 37 38 39 40 41 42 43 44 45 46 47 48 49 50
000
ASUS43 KJKL 200210
RWRJKL

EAST KENTUCKY HOURLY WEATHER ROUNDUP
NATIONAL WEATHER SERVICE JACKSON KY
1000 PM EDT SAT MAY 19 2018

NOTE: "FAIR" INDICATES FEW OR NO CLOUDS BELOW 12,000 FEET WITH
NO SIGNIFICANT WEATHER AND/OR OBSTRUCTIONS TO VISIBILITY.

* THESE REPORTS ARE NOT UNDER NWS QUALITY CONTROL AND MAY NOT
  REPORT WEATHER SUCH AS PRECIPITATION AND FOG.

KYZ079-080-083-085-087-088-110-112-115-119-120-200300
...EASTERN KENTUCKY...

CITY           SKY/WX    TMP DP  RH WIND       PRES   REMARKS
JACKSON        MOCLDY    68  66  93 CALM      30.05R
LONDON           N/A     68  67  96 S3        30.06R
SOMERSET*        N/A     68  68 100 CALM      30.06R FOG
MONTICELLO*      N/A     67  67 100 W9        30.07R FOG
WILLIAMSBURG*    N/A     66  66 100 CALM      30.07R
MIDDLESBORO*   CLOUDY    67  67 100 CALM      30.08R
HARLAN APT*    CLOUDY    65  65  99 CALM      30.09R
PIKE CO APT*     N/A     66  66 100 S3        30.07R
BIG SANDY APT*   N/A     67  67 100 SW3       30.05R
MOREHEAD APT*    N/A     68  66  94 CALM      30.03S
ASHLAND*         N/A     67  67 100 E5        29.99R FOG
$$

KYZ035-036-041-042-044-050-067-078-099-200300
...CENTRAL KENTUCKY...

CITY           SKY/WX    TMP DP  RH WIND       PRES   REMARKS
MT STERLING*     N/A     70  68  94 SW3       30.04R
FLEMING/MASON*   N/A     68  65  89 SW5       30.02R
DANVILLE*        N/A     70  66  88 CALM      30.05R
LEXINGTON        N/A     71  66  84 SW8       30.02R
FRANKFORT        N/A     71  64  78 SW6       29.99R
LOUISVILLE     MOCLDY    77  65  66 SW6       29.98R
LEBANON*         N/A     73  64  73 CALM      30.02R
GLASGOW*         N/A     71  65  83 CALM      30.04R
BOWLING GREEN    N/A     79  68  69 SW7       30.03R
$$

KYZ091>093-OHZ055-061-077-WVZ005-015-034-035-042-200300
...SOUTHERN OHIO/WEST VIRGINIA...

CITY           SKY/WX    TMP DP  RH WIND       PRES   REMARKS
COVINGTON        N/A     69  66  90 S7        29.98R
COLUMBUS       MOCLDY    71  67  87 SW6       29.95R
DAYTON         MOCLDY    70  69  97 SW9       29.97R
WILMINGTON       N/A     66  65  96 SW8       29.97R
HUNTINGTON     CLOUDY    71  65  81 S6        30.00R
CHARLESTON       N/A     67  65  93 SW5       30.01R
PINEVILLE*     LGT RAIN  66  64  96 MISG      30.13R
BECKLEY        LGT RAIN  63  62  97 SW6       30.10R FOG
BLUEFIELD      RAIN      61  60  97 SW9       30.15R
LOGAN CO APT*    N/A     66  64  94 CALM      30.05R
$$

VAZ002-007-008-TNZ017-027-036-066-071-200300
...SOUTHWEST VIRGINIA/EAST TENNESSEE...

CITY           SKY/WX    TMP DP  RH WIND       PRES   REMARKS
WISE*          CLOUDY    64  64 100 S6        30.15R
JONESVILLE*    MOCLDY    66  66 100 CALM      30.11R
ABINGDON*      TSTM      68  66  92 CALM      30.12R
BRISTOL        TSTM      66  65  96 CALM      30.12R FOG
MORRISTOWN*    MOCLDY    73  68  83 CALM      30.06R
SEVIERVILLE*   PTCLDY    75  64  69 SW3       30.05R
KNOXVILLE        N/A     75  67  76 SW7       30.04R
LAFOLLETTE*    CLEAR     72  66  83 CALM      30.09R
OAK RIDGE        N/A     76  70  82 CALM      30.06R
CROSSVILLE       N/A     68  65  90 CALM      30.11R
NASHVILLE      MOCLDY    80  60  50 NW16G23   30.07R
$$

...KEY TO REMARKS...
VSB - VISIBILITY IN MILES
WCI - WIND CHILL INDEX
HX  - HEAT INDEX

$$



USA.gov is the U.S. government's official web portal to all federal, state and local government web resources and services.